College Park, MD

7:24 AM EDT on May 25, 2017 (GMT -0400)
College Park

Weather History for KCGS - March, 2012

Change the Weather History Date:

Monday, March 12, 2012

  Actual Average Record
Temperature  
Mean Temperature 54 °F -  
Max Temperature 72 °F 54 °F 77 °F (1967)
Min Temperature 36 °F 33 °F 10 °F (1960)
Degree Days  
Heating Degree Days 11    
Growing Degree Days 4 (Base 50)    
Moisture  
Dew Point 34 °F    
Average Humidity 50    
Maximum Humidity 87    
Minimum Humidity 23    
Precipitation  
Precipitation 0.00 in - - ()
Sea Level Pressure  
Sea Level Pressure 30.28 in    
Wind  
Wind Speed 2 mph (SSW)    
Max Wind Speed 10 mph    
Max Gust Speed 17 mph    
Visibility 10 miles    
Events      
Averages and records for this station are not official NWS values.
T = Trace of Precipitation, MM = Missing Value Source: NWS Daily Summary

Daily Weather History Graph

Daily Weather History Graph

Search for Another Location

Airport or City:

Trip Planner

Search our weather history database for the weather conditions in past years. The results will help you decide how hot, cold, wet, or windy it might be!

Date:

Astronomy

Mar. 12, 2012 Rise Set
Actual Time 7:22 AM EDT 7:12 PM EDT
Civil Twilight 6:56 AM EDT 7:38 PM EDT
Nautical Twilight 6:25 AM EDT 8:09 PM EDT
Astronomical Twilight 5:54 AM EDT 8:41 PM EDT
Moon No Moon Rise 9:45 AM EDT (3/12)
Length of Visible Light 12h 42m
Length of Day
11h 49m
Waning Gibbous, 76% of the Moon is Illuminated
Mar 12
Waning Gibbous
Mar 14
Last Quarter
Mar 22
New
Mar 30
First Quarter
Apr 6
Full

Hourly Weather History & Observations

Time (EDT) Temp. Dew Point Humidity Pressure Visibility Wind Dir Wind Speed Gust Speed Precip Events Conditions
12:15 AM 43.3 °F 31.6 °F 63% 30.40 in 10.0 mi Calm Calm - N/A   Clear
1:00 AM 42.3 °F 30.7 °F 64% 30.40 in 10.0 mi Calm Calm - N/A   Clear
1:20 AM 42.1 °F 30.9 °F 65% 30.38 in 10.0 mi Calm Calm - N/A   Clear
1:40 AM 40.8 °F 31.6 °F 70% 30.38 in 10.0 mi Calm Calm - N/A   Clear
2:05 AM 41.0 °F 32.0 °F 70% 30.37 in 10.0 mi Calm Calm - N/A   Clear
2:25 AM 41.2 °F 30.9 °F 67% 30.37 in 10.0 mi Calm Calm - N/A   Clear
3:05 AM 39.7 °F 31.5 °F 72% 30.36 in 10.0 mi Calm Calm - N/A   Clear
3:30 AM 39.2 °F 30.9 °F 72% 30.34 in 10.0 mi Calm Calm - N/A   Clear
3:50 AM 39.2 °F 30.6 °F 71% 30.34 in 10.0 mi Calm Calm - N/A   Clear
4:05 AM 38.7 °F 30.2 °F 72% 30.33 in 10.0 mi Calm Calm - N/A   Clear
4:30 AM 38.7 °F 30.2 °F 72% 30.33 in 10.0 mi Calm Calm - N/A   Clear
4:55 AM 37.6 °F 31.1 °F 77% 30.34 in 10.0 mi Calm Calm - N/A   Clear
5:15 AM 37.6 °F 31.1 °F 77% 30.34 in 10.0 mi Calm Calm - N/A   Clear
5:35 AM 37.6 °F 32.9 °F 83% 30.34 in 10.0 mi Calm Calm - N/A   Clear
5:55 AM 37.4 °F 32.4 °F 82% 30.34 in 10.0 mi Calm Calm - N/A   Clear
6:20 AM 36.1 °F 31.5 °F 83% 30.35 in 10.0 mi Calm Calm - N/A   Clear
6:40 AM 37.0 °F 32.5 °F 84% 30.35 in 10.0 mi Calm Calm - N/A   Clear
7:00 AM 36.7 °F 31.8 °F 83% 30.35 in 10.0 mi Calm Calm - N/A   Clear
7:25 AM 37.0 °F 33.4 °F 87% 30.35 in 10.0 mi Calm Calm - N/A   Clear
7:45 AM 36.5 °F 32.2 °F 84% 30.35 in 10.0 mi Calm Calm - N/A   Clear
8:05 AM 37.4 °F 32.9 °F 84% 30.34 in 10.0 mi Calm Calm - N/A   Clear
8:25 AM 39.6 °F 34.5 °F 82% 30.34 in 10.0 mi Calm Calm - N/A   Clear
9:10 AM 48.2 °F 34.3 °F 59% 30.34 in 10.0 mi Calm Calm - N/A   Clear
9:30 AM 52.0 °F 27.5 °F 39% 30.34 in 10.0 mi SSE 3.5 mph - N/A   Clear
9:45 AM 53.4 °F 25.9 °F 34% 30.34 in 10.0 mi SSE 4.6 mph - N/A   Clear
10:15 AM 54.9 °F 24.6 °F 31% 30.35 in 10.0 mi South 8.1 mph - N/A   Clear
10:35 AM 55.8 °F 24.6 °F 30% 30.35 in 10.0 mi SSW 3.5 mph - N/A   Clear
10:55 AM 57.2 °F 25.3 °F 29% 30.34 in 10.0 mi South 3.5 mph - N/A   Clear
11:40 AM 60.1 °F 24.4 °F 26% 30.32 in 10.0 mi South 5.8 mph - N/A   Clear
12:00 PM 61.7 °F 25.0 °F 25% 30.31 in 10.0 mi SSW 4.6 mph - N/A   Clear
12:20 PM 62.4 °F 25.2 °F 24% 30.31 in 10.0 mi SSW 4.6 mph - N/A   Clear
12:40 PM 63.1 °F 25.2 °F 24% 30.31 in 10.0 mi South 6.9 mph - N/A   Clear
1:05 PM 64.4 °F 26.8 °F 24% 30.29 in 10.0 mi SSW 3.5 mph - N/A   Clear
1:25 PM 66.6 °F 27.9 °F 23% 30.27 in 10.0 mi South 10.4 mph - N/A   Clear
1:45 PM 68.0 °F 28.9 °F 23% 30.26 in 10.0 mi SW 4.6 mph - N/A   Clear
2:05 PM 69.3 °F 30.4 °F 24% 30.24 in 10.0 mi SW 6.9 mph - N/A   Clear
2:30 PM 69.8 °F 31.5 °F 24% 30.23 in 10.0 mi SW 6.9 mph - N/A   Clear
2:50 PM 70.9 °F 33.6 °F 25% 30.22 in 10.0 mi West 9.2 mph - N/A   Clear
3:10 PM 70.0 °F 34.7 °F 27% 30.21 in 10.0 mi SW 9.2 mph - N/A   Clear
3:35 PM 71.4 °F 36.0 °F 27% 30.20 in 10.0 mi SW 5.8 mph 17.3 mph N/A   Clear
3:55 PM 70.9 °F 37.2 °F 29% 30.20 in 10.0 mi SSW 5.8 mph - N/A   Clear
4:15 PM 71.4 °F 37.8 °F 29% 30.19 in 10.0 mi SSW 8.1 mph - N/A   Clear
5:00 PM 72.5 °F 37.4 °F 28% 30.17 in 10.0 mi SW 9.2 mph - N/A   Clear
5:20 PM 71.8 °F 39.7 °F 31% 30.17 in 10.0 mi South 4.6 mph - N/A   Clear
5:40 PM 71.8 °F 41.0 °F 33% 30.17 in 10.0 mi SSW 3.5 mph - N/A   Clear
6:00 PM 71.6 °F 42.6 °F 35% 30.16 in 10.0 mi South 4.6 mph - N/A   Clear
6:25 PM 71.6 °F 41.9 °F 34% 30.16 in 10.0 mi South 5.8 mph - N/A   Clear
6:45 PM 71.1 °F 42.1 °F 35% 30.16 in 10.0 mi Calm Calm - N/A   Scattered Clouds
7:25 PM 70.7 °F 41.9 °F 35% 30.16 in 10.0 mi Calm Calm - N/A   Clear
7:50 PM 69.8 °F 42.1 °F 37% 30.16 in 10.0 mi Calm Calm - N/A   Clear
8:10 PM 68.9 °F 42.6 °F 39% 30.16 in 10.0 mi Calm Calm - N/A   Scattered Clouds
8:50 PM 66.0 °F 44.8 °F 46% 30.16 in 10.0 mi Calm Calm - N/A   Mostly Cloudy
9:15 PM 64.8 °F 45.3 °F 49% 30.15 in 10.0 mi Calm Calm - N/A   Scattered Clouds
9:35 PM 62.6 °F 46.4 °F 55% 30.15 in 10.0 mi Calm Calm - N/A   Clear
10:15 PM 68.0 °F 47.1 °F 47% 30.15 in 10.0 mi South 4.6 mph - N/A   Clear
10:40 PM 68.0 °F 47.3 °F 47% 30.14 in 10.0 mi South 5.8 mph - N/A   Scattered Clouds
11:00 PM 68.0 °F 47.5 °F 48% 30.14 in 10.0 mi SSW 6.9 mph - N/A   Scattered Clouds
11:20 PM 67.5 °F 47.7 °F 49% 30.14 in 10.0 mi SSW 6.9 mph - N/A   Mostly Cloudy
11:40 PM 67.1 °F 47.5 °F 49% 30.13 in 10.0 mi SSW 5.8 mph - N/A   Scattered Clouds